Regional Weather Roundup
Issued by NWS Little Rock, AR

Home | Current Version | Previous Version | Graphics & Text | Print | Product List | Glossary On
Versions: 1 2 3 4 5 6 7 8 9 10 11 12 13 14 15 16 17 18 19 20 21 22 23 24 25 26 27
000
ASUS44 KLZK 162005
RWRLZK

WEATHER ROUNDUP FOR ARKANSAS
NATIONAL WEATHER SERVICE LITTLE ROCK AR
300 PM CDT WED APR 16 2014

NOTE: "FAIR" INDICATES FEW OR NO CLOUDS BELOW 12,000 FEET WITH NO
SIGNIFICANT WEATHER AND/OR OBSTRUCTIONS TO VISIBILITY.

ARZ001-003-010-029-162100-
NORTHWEST ARKANSAS

CITY           SKY/WX    TMP DP  RH WIND       PRES   REMARKS
FAYETTEVILLE   MOSUNNY   59  31  34 S21G28    30.04F
FORT SMITH     PTSUNNY   64  29  26 S13G22    30.06F
HARRISON       PTSUNNY   59  24  26 S20       30.06F
BENTONVILLE    MOSUNNY   61  28  29 S18G25    30.04F
ROGERS         MOSUNNY   60  29  30 SE16G28   30.03F
SILOAM SPGS    SUNNY     61  32  33 S24G32    30.03
HIGHFILL       SUNNY     59  32  36 S22G28    30.02F
SPRINGDALE     PTSUNNY   59  30  33 S17G35    30.06F
$$

ARZ004-005-016-162100-
NORTH CENTRAL ARKANSAS

CITY           SKY/WX    TMP DP  RH WIND       PRES   REMARKS
BATESVILLE     PTSUNNY   57  30  35 E12G18    30.15F
FLIPPIN        CLOUDY    59  27  29 SE10G22   30.08F
MTN HOME       CLOUDY    60  25  26 SE12G22   30.07F
$$

ARZ040-041-162100-
WEST CENTRAL ARKANSAS

CITY           SKY/WX    TMP DP  RH WIND       PRES   REMARKS
MENA           PTSUNNY   63  30  29 S9        30.07F
MOUNT IDA      PTSUNNY   60  29  30 SE9G16    30.08F
$$

ARZ009-017-025-026-028-162100-
NORTHEAST ARKANSAS

CITY           SKY/WX    TMP DP  RH WIND       PRES   REMARKS
CORNING          N/A     55  32  41 SE12      30.18F
JONESBORO      MOSUNNY   55  29  36 SE7       30.18F
NEWPORT        MOSUNNY   55  32  41 SE13      30.19F
WALNUT RIDGE   MOSUNNY   55  30  38 SE12      30.18F
BLYTHEVILLE    SUNNY     56  26  31 SE7       30.19F
$$

ARZ022-023-033-042-044-162100-
CENTRAL ARKANSAS

CITY           SKY/WX    TMP DP  RH WIND       PRES   REMARKS
LITTLE ROCK    PTSUNNY   59  30  33 SE12      30.15F
N LITTLE ROCK  PTSUNNY   57  33  41 S5G17     30.15F
JACKSONVILLE   PTSUNNY   59  32  36 VRB5      30.15F
SEARCY         PTSUNNY   58  33  38 SE12      30.18F
HOT SPRINGS    PTSUNNY   62  28  27 SE7G16    30.12F
RUSSELLVILLE   PTSUNNY   62  30  29 VRB6      30.10F
CLINTON        FAIR      59  32  36 SE12      30.13F
$$

ARZ036-162100-
EAST ARKANSAS

CITY           SKY/WX    TMP DP  RH WIND       PRES   REMARKS
WEST MEMPHIS   MOSUNNY   58  26  29 SE3       30.17F
$$

ARZ050-053-066-070-073-162100-
SOUTHWEST ARKANSAS

CITY           SKY/WX    TMP DP  RH WIND       PRES   REMARKS
ARKADELPHIA    FAIR      62  30  30 SE6       30.14F
CAMDEN         MOSUNNY   64  27  24 MISG      30.14F
TEXARKANA      PTSUNNY   61  31  32 S12       30.12F
EL DORADO      FAIR      61  28  28 SE7G17    30.14F
DE QUEEN       PTSUNNY   62  34  35 SE8G18    30.08F
$$

ARZ056-057-069-162100-
SOUTHEAST ARKANSAS

CITY           SKY/WX    TMP DP  RH WIND       PRES   REMARKS
PINE BLUFF     MOSUNNY   58  36  43 E12       30.16F
STUTTGART      MOSUNNY   57  30  35 SE6       30.18F
MONTICELLO     SUNNY     59  29  31 VRB6      30.15F

$$





USA.gov is the U.S. government's official web portal to all federal, state and local government web resources and services.